Change the Weather History Date:

Wednesday, May 8, 2013

  Actual Average Record
Temperature  
Mean Temperature 60 °F -  
Max Temperature 75 °F 58 °F 84 °F (2007)
Min Temperature 46 °F 34 °F 26 °F (2008)
Degree Days  
Heating Degree Days 4    
Growing Degree Days 10 (Base 50)    
Moisture  
Dew Point 43 °F    
Average Humidity 60    
Maximum Humidity 87    
Minimum Humidity 25    
Precipitation  
Precipitation 0.02 in - - ()
Sea Level Pressure  
Sea Level Pressure 29.98 in    
Wind  
Wind Speed 1 mph (SSE)    
Max Wind Speed 6 mph    
Max Gust Speed 10 mph    
Visibility 10 miles    
Events Rain    
Averages and records for this station are not official NWS values.
T = Trace of Precipitation, MM = Missing Value Source: NWS Daily Summary

Daily Weather History Graph

Daily Weather History Graph

Search for Another Location

Airport or City:

Trip Planner

Search our weather history database for the weather conditions in past years. The results will help you decide how hot, cold, wet, or windy it might be!

Date:

Astronomy

May. 08, 2013 Rise Set
Actual Time 5:41 AM CDT 8:34 PM CDT
Civil Twilight 5:05 AM CDT 9:10 PM CDT
Nautical Twilight 4:19 AM CDT 9:57 PM CDT
Astronomical Twilight 3:24 AM CDT 10:53 PM CDT
Moon 4:56 AM CDT (5/8) 7:29 PM CDT (5/8)
Length of Visible Light 16h 04m
Length of Day
14h 52m
Waning Crescent, 2% of the Moon is Illuminated
May 8
Waning Crescent
May 9
New
May 17
First Quarter
May 24
Full
May 31
Last Quarter

Hourly Weather History & Observations

Time (CDT) Temp. Windchill Dew Point Humidity Pressure Visibility Wind Dir Wind Speed Gust Speed Precip Events Conditions
12:13 AM 55.4 °F - 39.2 °F 54% 29.94 in 10.0 mi SE 3.5 mph - N/A   Clear
12:33 AM 53.6 °F - 39.2 °F 58% 29.95 in 10.0 mi NW 4.6 mph - N/A   Clear
12:53 AM 53.6 °F - 39.2 °F 58% 29.95 in 10.0 mi Calm Calm - N/A   Clear
1:13 AM 53.6 °F - 39.2 °F 58% 29.95 in 10.0 mi Calm Calm - N/A   Clear
1:33 AM 53.6 °F - 39.2 °F 58% 29.95 in 10.0 mi Calm Calm - N/A   Clear
1:53 AM 53.6 °F - 39.2 °F 58% 29.94 in 10.0 mi SE 3.5 mph - N/A   Clear
2:13 AM 53.6 °F - 39.2 °F 58% 29.94 in 10.0 mi Calm Calm - N/A   Clear
2:33 AM 53.6 °F - 39.2 °F 58% 29.94 in 10.0 mi Calm Calm - N/A   Clear
2:53 AM 53.6 °F - 39.2 °F 58% 29.94 in 10.0 mi Calm Calm - N/A   Clear
3:13 AM 51.8 °F - 39.2 °F 62% 29.94 in 10.0 mi Calm Calm - N/A   Clear
3:33 AM 46.4 °F 45.2 °F 39.2 °F 76% 29.94 in 10.0 mi SE 3.5 mph - N/A   Clear
3:53 AM 51.8 °F - 39.2 °F 62% 29.94 in 10.0 mi Calm Calm - N/A   Clear
4:13 AM 48.2 °F - 39.2 °F 71% 29.94 in 10.0 mi Calm Calm - N/A   Clear
4:33 AM 50.0 °F - 39.2 °F 66% 29.94 in 10.0 mi Calm Calm - N/A   Scattered Clouds
4:53 AM 50.0 °F - 39.2 °F 66% 29.94 in 10.0 mi SSE 3.5 mph - N/A   Scattered Clouds
5:13 AM 50.0 °F - 39.2 °F 66% 29.94 in 10.0 mi SSE 3.5 mph - N/A   Scattered Clouds
5:53 AM 50.0 °F - 39.2 °F 66% 29.94 in 10.0 mi Calm Calm - N/A   Mostly Cloudy
6:13 AM 51.8 °F - 39.2 °F 62% 29.95 in 10.0 mi Calm Calm - N/A   Mostly Cloudy
6:33 AM 50.0 °F - 39.2 °F 66% 29.96 in 10.0 mi Calm Calm - N/A   Scattered Clouds
6:53 AM 50.0 °F - 39.2 °F 66% 29.96 in 10.0 mi SSE 3.5 mph - N/A   Mostly Cloudy
7:13 AM 48.2 °F - 39.2 °F 71% 29.97 in 10.0 mi Calm Calm - N/A   Scattered Clouds
7:33 AM 51.8 °F - 39.2 °F 62% 29.97 in 10.0 mi Calm Calm - N/A   Scattered Clouds
7:53 AM 53.6 °F - 41.0 °F 62% 29.97 in 10.0 mi Calm Calm - N/A   Scattered Clouds
8:13 AM 55.4 °F - 41.0 °F 58% 29.97 in 10.0 mi Calm Calm - N/A   Scattered Clouds
8:33 AM 57.2 °F - 41.0 °F 55% 29.98 in 10.0 mi Calm Calm - N/A   Clear
8:53 AM 57.2 °F - 41.0 °F 55% 29.98 in 10.0 mi Calm Calm - N/A   Clear
9:13 AM 60.8 °F - 39.2 °F 45% 29.98 in 10.0 mi Calm Calm - N/A   Clear
9:34 AM 64.4 °F - 39.2 °F 40% 29.97 in 10.0 mi Calm Calm - N/A   Clear
9:53 AM 66.2 °F - 41.0 °F 40% 29.97 in 10.0 mi Calm Calm - N/A   Clear
10:13 AM 69.8 °F - 39.2 °F 33% 29.97 in 10.0 mi Calm Calm - N/A   Clear
10:33 AM 68.0 °F - 41.0 °F 37% 29.97 in 10.0 mi Calm Calm - N/A   Clear
10:53 AM 69.8 °F - 41.0 °F 35% 29.97 in 10.0 mi Calm Calm - N/A   Clear
11:13 AM 71.6 °F - 39.2 °F 31% 29.97 in 10.0 mi Calm Calm - N/A   Clear
11:34 AM 73.4 °F - 37.4 °F 27% 29.97 in 10.0 mi Calm Calm - N/A   Clear
11:53 AM 73.4 °F - 37.4 °F 27% 29.97 in 10.0 mi West 4.6 mph - N/A   Clear
12:13 PM 75.2 °F - 37.4 °F 25% 29.97 in 10.0 mi West 3.5 mph - N/A   Clear
12:33 PM 73.4 °F - 37.4 °F 27% 29.97 in 10.0 mi West 3.5 mph - N/A   Clear
12:53 PM 69.8 °F - 42.8 °F 38% 29.97 in 7.0 mi Calm Calm - 0.01 in Rain Rain
1:13 PM 64.4 °F - 44.6 °F 49% 29.97 in 10.0 mi South 4.6 mph 10.4 mph N/A Rain Rain
1:33 PM 64.4 °F - 53.6 °F 68% 29.97 in 10.0 mi Calm Calm - N/A   Scattered Clouds
1:54 PM 66.2 °F - 44.6 °F 46% 29.97 in 10.0 mi NE 4.6 mph - N/A   Mostly Cloudy
2:13 PM 66.2 °F - 46.4 °F 49% 29.97 in 10.0 mi Calm Calm - N/A Rain Light Rain
2:33 PM 66.2 °F - 48.2 °F 52% 29.98 in 10.0 mi ESE 3.5 mph - N/A   Mostly Cloudy
2:53 PM 64.4 °F - 48.2 °F 56% 29.98 in 10.0 mi East 3.5 mph - N/A   Scattered Clouds
3:33 PM 57.2 °F - 48.2 °F 72% 30.00 in 10.0 mi Calm Calm - 0.01 in Rain Rain
3:53 PM 59.0 °F - 48.2 °F 67% 29.99 in 10.0 mi Calm Calm - 0.01 in   Light Drizzle
4:13 PM 60.8 °F - 48.2 °F 63% 29.98 in 10.0 mi Calm Calm - N/A   Mostly Cloudy
4:33 PM 62.6 °F - 48.2 °F 59% 29.98 in 10.0 mi Calm Calm - N/A   Scattered Clouds
4:53 PM 62.6 °F - 48.2 °F 59% 29.98 in 10.0 mi Calm Calm - N/A   Scattered Clouds
5:13 PM 62.6 °F - 48.2 °F 59% 29.99 in 10.0 mi Calm Calm - N/A   Scattered Clouds
5:33 PM 60.8 °F - 48.2 °F 63% 30.00 in 10.0 mi Calm Calm - N/A   Mostly Cloudy
5:53 PM 60.8 °F - 48.2 °F 63% 30.00 in 10.0 mi South 3.5 mph - N/A   Scattered Clouds
6:14 PM 60.8 °F - 48.2 °F 63% 30.00 in 10.0 mi Calm Calm - N/A   Clear
6:33 PM 60.8 °F - 50.0 °F 68% 30.01 in 10.0 mi Calm Calm - N/A   Clear
6:53 PM 59.0 °F - 50.0 °F 72% 30.01 in 10.0 mi Calm Calm - N/A   Clear
7:13 PM 59.0 °F - 48.2 °F 67% 30.01 in 10.0 mi Calm Calm - N/A Rain Light Rain
7:33 PM 57.2 °F - 51.8 °F 82% 30.01 in 10.0 mi Calm Calm - N/A Rain Light Rain
7:53 PM 57.2 °F - 50.0 °F 77% 30.01 in 10.0 mi Calm Calm - N/A   Clear
8:13 PM 57.2 °F - 50.0 °F 77% 30.02 in 10.0 mi NW 5.8 mph - N/A   Clear
8:33 PM 55.4 °F - 50.0 °F 82% 30.02 in 10.0 mi Calm Calm - N/A   Clear
8:53 PM 53.6 °F - 48.2 °F 82% 30.02 in 10.0 mi Calm Calm - N/A   Clear
9:13 PM 50.0 °F - 46.4 °F 87% 30.03 in 10.0 mi Calm Calm - N/A   Clear
9:33 PM 48.2 °F - 44.6 °F 87% 30.04 in 10.0 mi Calm Calm - N/A   Clear
9:53 PM 48.2 °F - 42.8 °F 82% 30.04 in 10.0 mi Calm Calm - N/A   Clear
10:13 PM 46.4 °F - 42.8 °F 87% 30.04 in 10.0 mi Calm Calm - N/A   Clear
10:34 PM 46.4 °F - 39.2 °F 76% 30.05 in 10.0 mi Calm Calm - N/A   Clear
10:53 PM 48.2 °F - 39.2 °F 71% 30.05 in 10.0 mi Calm Calm - N/A   Clear
11:13 PM 50.0 °F - 37.4 °F 62% 30.05 in 10.0 mi Calm Calm - N/A   Clear
11:33 PM 48.2 °F - 37.4 °F 66% 30.05 in 10.0 mi Calm Calm - N/A   Clear
11:53 PM 48.2 °F - 35.6 °F 62% 30.05 in 10.0 mi Calm Calm - N/A   Clear